owner,sensor,date,latitude,longitude,sea_surface_height_above_sea_level,qcFlag 
TCOON,ioos:station:TCOON:518:1,2015-09-01T14:24:00Z,29.5150,-94.5133,1.595,1111122 
TCOON,ioos:station:TCOON:518:1,2015-09-01T15:18:00Z,29.5150,-94.5133,1.557,1111122 
TCOON,ioos:station:TCOON:518:1,2015-09-01T16:24:00Z,29.5150,-94.5133,1.503,1111122 
TCOON,ioos:station:TCOON:518:1,2015-09-01T17:24:00Z,29.5150,-94.5133,1.514,1111122 
TCOON,ioos:station:TCOON:518:1,2015-09-01T18:18:00Z,29.5150,-94.5133,1.712,1111122 
TCOON,ioos:station:TCOON:518:1,2015-09-01T19:18:00Z,29.5150,-94.5133,1.452,1111122 
TCOON,ioos:station:TCOON:518:1,2015-09-01T20:12:00Z,29.5150,-94.5133,1.298,1111122 
TCOON,ioos:station:TCOON:518:1,2015-09-01T21:18:00Z,29.5150,-94.5133,1.278,1111122 
TCOON,ioos:station:TCOON:518:1,2015-09-01T22:24:00Z,29.5150,-94.5133,1.363,1111122 
TCOON,ioos:station:TCOON:518:1,2015-09-01T23:24:00Z,29.5150,-94.5133,1.375,1111122 
TCOON,ioos:station:TCOON:518:1,2015-09-02T00:24:00Z,29.5150,-94.5133,1.363,1111122 
TCOON,ioos:station:TCOON:518:1,2015-09-02T01:24:00Z,29.5150,-94.5133,1.535,1111122 
TCOON,ioos:station:TCOON:518:1,2015-09-02T02:24:00Z,29.5150,-94.5133,1.613,1111122 
TCOON,ioos:station:TCOON:518:1,2015-09-02T03:24:00Z,29.5150,-94.5133,1.574,1111122 
TCOON,ioos:station:TCOON:518:1,2015-09-02T04:24:00Z,29.5150,-94.5133,1.548,1111122 
TCOON,ioos:station:TCOON:518:1,2015-09-02T05:18:00Z,29.5150,-94.5133,1.528,1111122 
TCOON,ioos:station:TCOON:518:1,2015-09-02T06:24:00Z,29.5150,-94.5133,1.458,1111122 
TCOON,ioos:station:TCOON:518:1,2015-09-02T07:54:00Z,29.5150,-94.5133,1.45,1111122 
TCOON,ioos:station:TCOON:518:1,2015-09-02T09:18:00Z,29.5150,-94.5133,1.437,1111122 
TCOON,ioos:station:TCOON:518:1,2015-09-02T10:24:00Z,29.5150,-94.5133,1.425,1111122 
TCOON,ioos:station:TCOON:518:1,2015-09-02T11:24:00Z,29.5150,-94.5133,1.501,1111122 
TCOON,ioos:station:TCOON:518:1,2015-09-02T12:30:00Z,29.5150,-94.5133,1.576,1111122 
TCOON,ioos:station:TCOON:518:1,2015-09-02T13:30:00Z,29.5150,-94.5133,1.616,1111122 
TCOON,ioos:station:TCOON:518:1,2015-09-02T14:30:00Z,29.5150,-94.5133,1.561,1111122 
TCOON,ioos:station:TCOON:518:1,2015-09-02T15:30:00Z,29.5150,-94.5133,1.621,1111122 
TCOON,ioos:station:TCOON:518:1,2015-09-02T16:30:00Z,29.5150,-94.5133,1.57,1111122 
TCOON,ioos:station:TCOON:518:1,2015-09-02T17:30:00Z,29.5150,-94.5133,1.456,1111122 
TCOON,ioos:station:TCOON:518:1,2015-09-02T18:24:00Z,29.5150,-94.5133,1.374,1111122 
TCOON,ioos:station:TCOON:518:1,2015-09-02T19:24:00Z,29.5150,-94.5133,1.303,1111122 
TCOON,ioos:station:TCOON:518:1,2015-09-02T20:24:00Z,29.5150,-94.5133,1.273,1111122 
TCOON,ioos:station:TCOON:518:1,2015-09-02T21:30:00Z,29.5150,-94.5133,1.215,1111122 
TCOON,ioos:station:TCOON:518:1,2015-09-02T22:18:00Z,29.5150,-94.5133,1.188,1111122 
TCOON,ioos:station:TCOON:518:1,2015-09-02T23:18:00Z,29.5150,-94.5133,1.159,1111122 
TCOON,ioos:station:TCOON:518:1,2015-09-03T00:18:00Z,29.5150,-94.5133,1.251,1111122 
TCOON,ioos:station:TCOON:518:1,2015-09-03T01:24:00Z,29.5150,-94.5133,1.439,1111122 
TCOON,ioos:station:TCOON:518:1,2015-09-03T02:18:00Z,29.5150,-94.5133,1.55,1111122 
TCOON,ioos:station:TCOON:518:1,2015-09-03T03:18:00Z,29.5150,-94.5133,1.617,1111122 
TCOON,ioos:station:TCOON:518:1,2015-09-03T04:12:00Z,29.5150,-94.5133,1.614,1111122 
TCOON,ioos:station:TCOON:518:1,2015-09-03T05:12:00Z,29.5150,-94.5133,1.602,1111122 
TCOON,ioos:station:TCOON:518:1,2015-09-03T06:18:00Z,29.5150,-94.5133,1.648,1111122 
TCOON,ioos:station:TCOON:518:1,2015-09-03T07:48:00Z,29.5150,-94.5133,1.639,1111122 
TCOON,ioos:station:TCOON:518:1,2015-09-03T08:18:00Z,29.5150,-94.5133,1.624,1111122 
TCOON,ioos:station:TCOON:518:1,2015-09-03T09:12:00Z,29.5150,-94.5133,1.6,1111122 
TCOON,ioos:station:TCOON:518:1,2015-09-03T10:12:00Z,29.5150,-94.5133,1.577,1111122 
TCOON,ioos:station:TCOON:518:1,2015-09-03T11:12:00Z,29.5150,-94.5133,1.572,1111122 
TCOON,ioos:station:TCOON:518:1,2015-09-03T12:12:00Z,29.5150,-94.5133,1.536,1111122 
TCOON,ioos:station:TCOON:518:1,2015-09-03T13:24:00Z,29.5150,-94.5133,1.586,1111122 
TCOON,ioos:station:TCOON:518:1,2015-09-03T14:18:00Z,29.5150,-94.5133,1.609,1111122 
TCOON,ioos:station:TCOON:518:1,2015-09-03T15:18:00Z,29.5150,-94.5133,1.568,1111122 
TCOON,ioos:station:TCOON:518:1,2015-09-03T16:18:00Z,29.5150,-94.5133,1.513,1111122 
TCOON,ioos:station:TCOON:518:1,2015-09-03T17:30:00Z,29.5150,-94.5133,1.413,1111122 
TCOON,ioos:station:TCOON:518:1,2015-09-03T18:18:00Z,29.5150,-94.5133,1.401,1111122 
TCOON,ioos:station:TCOON:518:1,2015-09-03T19:18:00Z,29.5150,-94.5133,1.335,1111122 
TCOON,ioos:station:TCOON:518:1,2015-09-03T20:18:00Z,29.5150,-94.5133,1.259,1111122 
TCOON,ioos:station:TCOON:518:1,2015-09-03T21:18:00Z,29.5150,-94.5133,1.219,1111122 
TCOON,ioos:station:TCOON:518:1,2015-09-03T22:54:00Z,29.5150,-94.5133,1.225,1111122 
TCOON,ioos:station:TCOON:518:1,2015-09-03T23:12:00Z,29.5150,-94.5133,1.227,1111122 
TCOON,ioos:station:TCOON:518:1,2015-09-04T00:18:00Z,29.5150,-94.5133,1.226,1111122 
TCOON,ioos:station:TCOON:518:1,2015-09-04T01:18:00Z,29.5150,-94.5133,1.288,1111122 
TCOON,ioos:station:TCOON:518:1,2015-09-04T02:24:00Z,29.5150,-94.5133,1.433,1111122 
TCOON,ioos:station:TCOON:518:1,2015-09-04T03:30:00Z,29.5150,-94.5133,1.475,1111122 
TCOON,ioos:station:TCOON:518:1,2015-09-04T04:18:00Z,29.5150,-94.5133,1.508,1111122 
TCOON,ioos:station:TCOON:518:1,2015-09-04T05:30:00Z,29.5150,-94.5133,1.549,1111122 
TCOON,ioos:station:TCOON:518:1,2015-09-04T06:18:00Z,29.5150,-94.5133,1.574,1111122 
TCOON,ioos:station:TCOON:518:1,2015-09-04T08:18:00Z,29.5150,-94.5133,1.6,1111122 
TCOON,ioos:station:TCOON:518:1,2015-09-04T09:12:00Z,29.5150,-94.5133,1.598,1111122 
TCOON,ioos:station:TCOON:518:1,2015-09-04T10:18:00Z,29.5150,-94.5133,1.592,1111122 
TCOON,ioos:station:TCOON:518:1,2015-09-04T11:18:00Z,29.5150,-94.5133,1.592,1111122 
TCOON,ioos:station:TCOON:518:1,2015-09-04T12:12:00Z,29.5150,-94.5133,1.572,1111122 
TCOON,ioos:station:TCOON:518:1,2015-09-04T13:12:00Z,29.5150,-94.5133,1.558,1111122 
TCOON,ioos:station:TCOON:518:1,2015-09-04T14:18:00Z,29.5150,-94.5133,1.555,1111122 
TCOON,ioos:station:TCOON:518:1,2015-09-04T15:18:00Z,29.5150,-94.5133,1.518,1111122 
TCOON,ioos:station:TCOON:518:1,2015-09-04T16:18:00Z,29.5150,-94.5133,1.501,1111122 
TCOON,ioos:station:TCOON:518:1,2015-09-04T17:18:00Z,29.5150,-94.5133,1.437,1111122 
TCOON,ioos:station:TCOON:518:1,2015-09-04T18:12:00Z,29.5150,-94.5133,1.368,1111122 
TCOON,ioos:station:TCOON:518:1,2015-09-04T19:12:00Z,29.5150,-94.5133,1.302,1111122 
TCOON,ioos:station:TCOON:518:1,2015-09-04T20:24:00Z,29.5150,-94.5133,1.235,1111122 
TCOON,ioos:station:TCOON:518:1,2015-09-04T21:24:00Z,29.5150,-94.5133,1.218,1111122 
TCOON,ioos:station:TCOON:518:1,2015-09-04T22:24:00Z,29.5150,-94.5133,1.201,1111122 
TCOON,ioos:station:TCOON:518:1,2015-09-04T23:18:00Z,29.5150,-94.5133,1.181,1111122 
TCOON,ioos:station:TCOON:518:1,2015-09-05T00:30:00Z,29.5150,-94.5133,1.151,1111122 
TCOON,ioos:station:TCOON:518:1,2015-09-05T01:18:00Z,29.5150,-94.5133,1.154,1111122 
TCOON,ioos:station:TCOON:518:1,2015-09-05T02:42:00Z,29.5150,-94.5133,1.249,1111122 
TCOON,ioos:station:TCOON:518:1,2015-09-05T03:18:00Z,29.5150,-94.5133,1.304,1111122 
TCOON,ioos:station:TCOON:518:1,2015-09-05T04:30:00Z,29.5150,-94.5133,1.377,1111122 
TCOON,ioos:station:TCOON:518:1,2015-09-05T05:30:00Z,29.5150,-94.5133,1.425,1111122 
TCOON,ioos:station:TCOON:518:1,2015-09-05T06:18:00Z,29.5150,-94.5133,1.466,1111122 
TCOON,ioos:station:TCOON:518:1,2015-09-05T07:54:00Z,29.5150,-94.5133,1.534,1111122 
TCOON,ioos:station:TCOON:518:1,2015-09-05T09:18:00Z,29.5150,-94.5133,1.546,1111122 
TCOON,ioos:station:TCOON:518:1,2015-09-05T10:18:00Z,29.5150,-94.5133,1.57,1111122 
TCOON,ioos:station:TCOON:518:1,2015-09-05T11:24:00Z,29.5150,-94.5133,1.576,1111122 
TCOON,ioos:station:TCOON:518:1,2015-09-05T12:24:00Z,29.5150,-94.5133,1.572,1111122 
TCOON,ioos:station:TCOON:518:1,2015-09-05T13:18:00Z,29.5150,-94.5133,1.541,1111122 
TCOON,ioos:station:TCOON:518:1,2015-09-05T14:12:00Z,29.5150,-94.5133,1.51,1111122 
TCOON,ioos:station:TCOON:518:1,2015-09-05T15:18:00Z,29.5150,-94.5133,1.482,1111122 
TCOON,ioos:station:TCOON:518:1,2015-09-05T16:24:00Z,29.5150,-94.5133,1.446,1111122 
TCOON,ioos:station:TCOON:518:1,2015-09-05T17:12:00Z,29.5150,-94.5133,1.433,1111122 
TCOON,ioos:station:TCOON:518:1,2015-09-05T18:12:00Z,29.5150,-94.5133,1.42,1111122 
TCOON,ioos:station:TCOON:518:1,2015-09-05T19:12:00Z,29.5150,-94.5133,1.349,1111122 
TCOON,ioos:station:TCOON:518:1,2015-09-05T20:18:00Z,29.5150,-94.5133,1.357,1111122 
TCOON,ioos:station:TCOON:518:1,2015-09-05T21:12:00Z,29.5150,-94.5133,1.297,1111122 
TCOON,ioos:station:TCOON:518:1,2015-09-05T22:18:00Z,29.5150,-94.5133,1.173,1111122 
TCOON,ioos:station:TCOON:518:1,2015-09-05T23:18:00Z,29.5150,-94.5133,1.116,1111122 
TCOON,ioos:station:TCOON:518:1,2015-09-06T00:12:00Z,29.5150,-94.5133,1.072,1111122 
TCOON,ioos:station:TCOON:518:1,2015-09-06T01:12:00Z,29.5150,-94.5133,1.048,1111122 
TCOON,ioos:station:TCOON:518:1,2015-09-06T02:18:00Z,29.5150,-94.5133,1.065,1111122 
TCOON,ioos:station:TCOON:518:1,2015-09-06T03:18:00Z,29.5150,-94.5133,1.091,1111122 
TCOON,ioos:station:TCOON:518:1,2015-09-06T04:30:00Z,29.5150,-94.5133,1.209,1111122 
TCOON,ioos:station:TCOON:518:1,2015-09-06T05:18:00Z,29.5150,-94.5133,1.274,1111122 
TCOON,ioos:station:TCOON:518:1,2015-09-06T06:24:00Z,29.5150,-94.5133,1.321,1111122 
TCOON,ioos:station:TCOON:518:1,2015-09-06T07:30:00Z,29.5150,-94.5133,1.388,1111122 
TCOON,ioos:station:TCOON:518:1,2015-09-06T08:18:00Z,29.5150,-94.5133,1.436,1111122 
TCOON,ioos:station:TCOON:518:1,2015-09-06T09:18:00Z,29.5150,-94.5133,1.481,1111122 
TCOON,ioos:station:TCOON:518:1,2015-09-06T10:18:00Z,29.5150,-94.5133,1.49,1111122 
TCOON,ioos:station:TCOON:518:1,2015-09-06T11:24:00Z,29.5150,-94.5133,1.501,1111122 
TCOON,ioos:station:TCOON:518:1,2015-09-06T12:18:00Z,29.5150,-94.5133,1.492,1111122 
TCOON,ioos:station:TCOON:518:1,2015-09-06T13:18:00Z,29.5150,-94.5133,1.471,1111122 
TCOON,ioos:station:TCOON:518:1,2015-09-06T14:18:00Z,29.5150,-94.5133,1.453,1111122 
TCOON,ioos:station:TCOON:518:1,2015-09-06T15:18:00Z,29.5150,-94.5133,1.435,1111122 
TCOON,ioos:station:TCOON:518:1,2015-09-06T16:18:00Z,29.5150,-94.5133,1.439,1111122 
TCOON,ioos:station:TCOON:518:1,2015-09-06T17:18:00Z,29.5150,-94.5133,1.437,1111122 
TCOON,ioos:station:TCOON:518:1,2015-09-06T18:18:00Z,29.5150,-94.5133,1.404,1111122 
TCOON,ioos:station:TCOON:518:1,2015-09-06T19:18:00Z,29.5150,-94.5133,1.374,1111122 
TCOON,ioos:station:TCOON:518:1,2015-09-06T20:18:00Z,29.5150,-94.5133,1.293,1111122 
TCOON,ioos:station:TCOON:518:1,2015-09-06T21:18:00Z,29.5150,-94.5133,1.222,1111122 
TCOON,ioos:station:TCOON:518:1,2015-09-06T22:12:00Z,29.5150,-94.5133,1.178,1111122 
TCOON,ioos:station:TCOON:518:1,2015-09-06T23:24:00Z,29.5150,-94.5133,1.113,1111122 
TCOON,ioos:station:TCOON:518:1,2015-09-07T00:24:00Z,29.5150,-94.5133,1.07,1111122 
TCOON,ioos:station:TCOON:518:1,2015-09-07T01:18:00Z,29.5150,-94.5133,1.033,1111122 
TCOON,ioos:station:TCOON:518:1,2015-09-07T02:24:00Z,29.5150,-94.5133,1.021,1111122 
TCOON,ioos:station:TCOON:518:1,2015-09-07T03:24:00Z,29.5150,-94.5133,1.044,1111122 
TCOON,ioos:station:TCOON:518:1,2015-09-07T04:24:00Z,29.5150,-94.5133,1.113,1111122 
TCOON,ioos:station:TCOON:518:1,2015-09-07T05:24:00Z,29.5150,-94.5133,1.188,1111122 
TCOON,ioos:station:TCOON:518:1,2015-09-07T06:24:00Z,29.5150,-94.5133,1.275,1111122 
TCOON,ioos:station:TCOON:518:1,2015-09-07T07:48:00Z,29.5150,-94.5133,1.368,1111122 
TCOON,ioos:station:TCOON:518:1,2015-09-07T08:18:00Z,29.5150,-94.5133,1.414,1111122 
TCOON,ioos:station:TCOON:518:1,2015-09-07T09:24:00Z,29.5150,-94.5133,1.452,1111122 
TCOON,ioos:station:TCOON:518:1,2015-09-07T10:30:00Z,29.5150,-94.5133,1.488,1111122 
TCOON,ioos:station:TCOON:518:1,2015-09-07T11:24:00Z,29.5150,-94.5133,1.507,1111122 
TCOON,ioos:station:TCOON:518:1,2015-09-07T12:24:00Z,29.5150,-94.5133,1.49,1111122 
TCOON,ioos:station:TCOON:518:1,2015-09-07T13:30:00Z,29.5150,-94.5133,1.452,1111122 
TCOON,ioos:station:TCOON:518:1,2015-09-07T14:30:00Z,29.5150,-94.5133,1.456,1111122 
TCOON,ioos:station:TCOON:518:1,2015-09-07T15:24:00Z,29.5150,-94.5133,1.463,1111122 
TCOON,ioos:station:TCOON:518:1,2015-09-07T16:24:00Z,29.5150,-94.5133,1.461,1111122 
TCOON,ioos:station:TCOON:518:1,2015-09-07T17:24:00Z,29.5150,-94.5133,1.433,1111122 
TCOON,ioos:station:TCOON:518:1,2015-09-07T18:30:00Z,29.5150,-94.5133,1.42,1111122 
TCOON,ioos:station:TCOON:518:1,2015-09-07T19:24:00Z,29.5150,-94.5133,1.393,1111122 
TCOON,ioos:station:TCOON:518:1,2015-09-07T20:24:00Z,29.5150,-94.5133,1.352,1111122 
TCOON,ioos:station:TCOON:518:1,2015-09-07T21:18:00Z,29.5150,-94.5133,1.357,1111122 
TCOON,ioos:station:TCOON:518:1,2015-09-07T22:24:00Z,29.5150,-94.5133,1.353,1111122 
TCOON,ioos:station:TCOON:518:1,2015-09-07T23:18:00Z,29.5150,-94.5133,1.302,1111122 
TCOON,ioos:station:TCOON:518:1,2015-09-08T00:12:00Z,29.5150,-94.5133,1.235,1111122 
TCOON,ioos:station:TCOON:518:1,2015-09-08T01:18:00Z,29.5150,-94.5133,1.188,1111122 
TCOON,ioos:station:TCOON:518:1,2015-09-08T02:12:00Z,29.5150,-94.5133,1.15,1111122 
TCOON,ioos:station:TCOON:518:1,2015-09-08T03:18:00Z,29.5150,-94.5133,1.143,1111122 
TCOON,ioos:station:TCOON:518:1,2015-09-08T04:18:00Z,29.5150,-94.5133,1.145,1111122 
TCOON,ioos:station:TCOON:518:1,2015-09-08T05:18:00Z,29.5150,-94.5133,1.207,1111122 
TCOON,ioos:station:TCOON:518:1,2015-09-08T06:18:00Z,29.5150,-94.5133,1.28,1111122 
TCOON,ioos:station:TCOON:518:1,2015-09-08T07:48:00Z,29.5150,-94.5133,1.425,1111122 
TCOON,ioos:station:TCOON:518:1,2015-09-08T08:18:00Z,29.5150,-94.5133,1.462,1111122 
TCOON,ioos:station:TCOON:518:1,2015-09-08T09:12:00Z,29.5150,-94.5133,1.508,1111122 
TCOON,ioos:station:TCOON:518:1,2015-09-08T10:18:00Z,29.5150,-94.5133,1.56,1111122 
TCOON,ioos:station:TCOON:518:1,2015-09-08T11:24:00Z,29.5150,-94.5133,1.583,1111122 
TCOON,ioos:station:TCOON:518:1,2015-09-08T12:18:00Z,29.5150,-94.5133,1.605,1111122 
TCOON,ioos:station:TCOON:518:1,2015-09-08T13:18:00Z,29.5150,-94.5133,1.615,1111122 
TCOON,ioos:station:TCOON:518:1,2015-09-08T14:24:00Z,29.5150,-94.5133,1.592,1111122 
TCOON,ioos:station:TCOON:518:1,2015-09-08T15:18:00Z,29.5150,-94.5133,1.576,1111122 
TCOON,ioos:station:TCOON:518:1,2015-09-08T16:18:00Z,29.5150,-94.5133,1.555,1111122 
TCOON,ioos:station:TCOON:518:1,2015-09-08T17:24:00Z,29.5150,-94.5133,1.535,1111122 
TCOON,ioos:station:TCOON:518:1,2015-09-08T18:24:00Z,29.5150,-94.5133,1.517,1111122 
TCOON,ioos:station:TCOON:518:1,2015-09-08T19:18:00Z,29.5150,-94.5133,1.49,1111122 
TCOON,ioos:station:TCOON:518:1,2015-09-08T20:18:00Z,29.5150,-94.5133,1.479,1111122 
TCOON,ioos:station:TCOON:518:1,2015-09-08T21:18:00Z,29.5150,-94.5133,1.477,1111122 
TCOON,ioos:station:TCOON:518:1,2015-09-08T23:06:00Z,29.5150,-94.5133,1.417,1111122 
TCOON,ioos:station:TCOON:518:1,2015-09-09T00:24:00Z,29.5150,-94.5133,1.344,1111122 
TCOON,ioos:station:TCOON:518:1,2015-09-09T01:12:00Z,29.5150,-94.5133,1.313,1111122 
TCOON,ioos:station:TCOON:518:1,2015-09-09T02:18:00Z,29.5150,-94.5133,1.294,1111122 
TCOON,ioos:station:TCOON:518:1,2015-09-09T03:18:00Z,29.5150,-94.5133,1.23,1111122 
TCOON,ioos:station:TCOON:518:1,2015-09-09T04:12:00Z,29.5150,-94.5133,1.231,1111122 
TCOON,ioos:station:TCOON:518:1,2015-09-09T05:18:00Z,29.5150,-94.5133,1.251,1111122 
TCOON,ioos:station:TCOON:518:1,2015-09-09T06:18:00Z,29.5150,-94.5133,1.304,1111122 
TCOON,ioos:station:TCOON:518:1,2015-09-09T07:42:00Z,29.5150,-94.5133,1.43,1111122 
TCOON,ioos:station:TCOON:518:1,2015-09-09T08:12:00Z,29.5150,-94.5133,1.472,1111122 
TCOON,ioos:station:TCOON:518:1,2015-09-09T09:12:00Z,29.5150,-94.5133,1.535,1111122 
TCOON,ioos:station:TCOON:518:1,2015-09-09T10:12:00Z,29.5150,-94.5133,1.586,1111122 
TCOON,ioos:station:TCOON:518:1,2015-09-09T11:18:00Z,29.5150,-94.5133,1.624,1111122 
TCOON,ioos:station:TCOON:518:1,2015-09-09T12:12:00Z,29.5150,-94.5133,1.613,1111122 
TCOON,ioos:station:TCOON:518:1,2015-09-09T13:18:00Z,29.5150,-94.5133,1.588,1111122 
TCOON,ioos:station:TCOON:518:1,2015-09-09T14:12:00Z,29.5150,-94.5133,1.622,1111122 
TCOON,ioos:station:TCOON:518:1,2015-09-09T15:18:00Z,29.5150,-94.5133,1.621,1111122 
TCOON,ioos:station:TCOON:518:1,2015-09-09T16:24:00Z,29.5150,-94.5133,1.602,1111122 
TCOON,ioos:station:TCOON:518:1,2015-09-09T17:24:00Z,29.5150,-94.5133,1.617,1111122 
TCOON,ioos:station:TCOON:518:1,2015-09-09T18:24:00Z,29.5150,-94.5133,1.542,1111122 
TCOON,ioos:station:TCOON:518:1,2015-09-09T19:24:00Z,29.5150,-94.5133,1.488,1111122 
TCOON,ioos:station:TCOON:518:1,2015-09-09T20:24:00Z,29.5150,-94.5133,1.516,1111122 
TCOON,ioos:station:TCOON:518:1,2015-09-09T21:18:00Z,29.5150,-94.5133,1.523,1111122 
TCOON,ioos:station:TCOON:518:1,2015-09-09T22:30:00Z,29.5150,-94.5133,1.494,1111122 
TCOON,ioos:station:TCOON:518:1,2015-09-09T23:42:00Z,29.5150,-94.5133,1.461,1111122 
TCOON,ioos:station:TCOON:518:1,2015-09-10T00:24:00Z,29.5150,-94.5133,1.417,1111122 
TCOON,ioos:station:TCOON:518:1,2015-09-10T01:18:00Z,29.5150,-94.5133,1.342,1111122 
TCOON,ioos:station:TCOON:518:1,2015-09-10T02:18:00Z,29.5150,-94.5133,1.266,1111122 
TCOON,ioos:station:TCOON:518:1,2015-09-10T03:12:00Z,29.5150,-94.5133,1.203,1111122 
TCOON,ioos:station:TCOON:518:1,2015-09-10T04:12:00Z,29.5150,-94.5133,1.173,1111122 
TCOON,ioos:station:TCOON:518:1,2015-09-10T05:12:00Z,29.5150,-94.5133,1.196,1111122 
TCOON,ioos:station:TCOON:518:1,2015-09-10T06:18:00Z,29.5150,-94.5133,1.209,1111122 
TCOON,ioos:station:TCOON:518:1,2015-09-10T07:42:00Z,29.5150,-94.5133,1.28,1111122 
TCOON,ioos:station:TCOON:518:1,2015-09-10T08:24:00Z,29.5150,-94.5133,1.303,1111122 
TCOON,ioos:station:TCOON:518:1,2015-09-10T09:18:00Z,29.5150,-94.5133,1.383,1111122 
TCOON,ioos:station:TCOON:518:1,2015-09-10T10:18:00Z,29.5150,-94.5133,1.419,1111122 
TCOON,ioos:station:TCOON:518:1,2015-09-10T11:12:00Z,29.5150,-94.5133,1.497,1111122 
TCOON,ioos:station:TCOON:518:1,2015-09-10T12:18:00Z,29.5150,-94.5133,1.525,1111122 
TCOON,ioos:station:TCOON:518:1,2015-09-10T13:18:00Z,29.5150,-94.5133,1.514,1111122 
TCOON,ioos:station:TCOON:518:1,2015-09-10T14:12:00Z,29.5150,-94.5133,1.59,1111122 
TCOON,ioos:station:TCOON:518:1,2015-09-10T15:12:00Z,29.5150,-94.5133,1.594,1111122 
TCOON,ioos:station:TCOON:518:1,2015-09-10T16:12:00Z,29.5150,-94.5133,1.411,1111122 
TCOON,ioos:station:TCOON:518:1,2015-09-10T17:18:00Z,29.5150,-94.5133,1.417,1111122 
TCOON,ioos:station:TCOON:518:1,2015-09-10T18:18:00Z,29.5150,-94.5133,1.399,1111122 
TCOON,ioos:station:TCOON:518:1,2015-09-10T19:18:00Z,29.5150,-94.5133,1.492,1111122 
TCOON,ioos:station:TCOON:518:1,2015-09-10T20:24:00Z,29.5150,-94.5133,1.568,1111122 
TCOON,ioos:station:TCOON:518:1,2015-09-10T21:18:00Z,29.5150,-94.5133,1.489,1111122 
TCOON,ioos:station:TCOON:518:1,2015-09-10T22:48:00Z,29.5150,-94.5133,1.623,1111122 
TCOON,ioos:station:TCOON:518:1,2015-09-10T23:12:00Z,29.5150,-94.5133,1.624,1111122 
TCOON,ioos:station:TCOON:518:1,2015-09-11T00:12:00Z,29.5150,-94.5133,1.631,1111122 
TCOON,ioos:station:TCOON:518:1,2015-09-11T01:18:00Z,29.5150,-94.5133,1.537,1111122 
TCOON,ioos:station:TCOON:518:1,2015-09-11T02:18:00Z,29.5150,-94.5133,1.436,1111122 
TCOON,ioos:station:TCOON:518:1,2015-09-11T03:18:00Z,29.5150,-94.5133,1.352,1111122 
TCOON,ioos:station:TCOON:518:1,2015-09-11T04:24:00Z,29.5150,-94.5133,1.292,1111122 
TCOON,ioos:station:TCOON:518:1,2015-09-11T05:24:00Z,29.5150,-94.5133,1.25,1111122 
TCOON,ioos:station:TCOON:518:1,2015-09-11T06:24:00Z,29.5150,-94.5133,1.211,1111122 
TCOON,ioos:station:TCOON:518:1,2015-09-11T07:48:00Z,29.5150,-94.5133,1.25,1111122 
TCOON,ioos:station:TCOON:518:1,2015-09-11T08:18:00Z,29.5150,-94.5133,1.302,1111122 
TCOON,ioos:station:TCOON:518:1,2015-09-11T09:12:00Z,29.5150,-94.5133,1.341,1111122 
TCOON,ioos:station:TCOON:518:1,2015-09-11T10:12:00Z,29.5150,-94.5133,1.405,1111122 
TCOON,ioos:station:TCOON:518:1,2015-09-11T11:18:00Z,29.5150,-94.5133,1.437,1111122 
TCOON,ioos:station:TCOON:518:1,2015-09-11T12:12:00Z,29.5150,-94.5133,1.416,1111122 
TCOON,ioos:station:TCOON:518:1,2015-09-11T13:12:00Z,29.5150,-94.5133,1.538,1111122 
TCOON,ioos:station:TCOON:518:1,2015-09-11T14:06:00Z,29.5150,-94.5133,1.621,1111122 
TCOON,ioos:station:TCOON:518:1,2015-09-11T15:18:00Z,29.5150,-94.5133,1.654,1111122 
TCOON,ioos:station:TCOON:518:1,2015-09-11T16:12:00Z,29.5150,-94.5133,1.579,1111122 
TCOON,ioos:station:TCOON:518:1,2015-09-11T17:24:00Z,29.5150,-94.5133,1.463,1111122 
TCOON,ioos:station:TCOON:518:1,2015-09-11T18:12:00Z,29.5150,-94.5133,1.438,1111122 
TCOON,ioos:station:TCOON:518:1,2015-09-11T19:12:00Z,29.5150,-94.5133,1.35,1111122 
TCOON,ioos:station:TCOON:518:1,2015-09-11T20:24:00Z,29.5150,-94.5133,1.355,1111122 
TCOON,ioos:station:TCOON:518:1,2015-09-11T21:12:00Z,29.5150,-94.5133,1.412,1111122 
TCOON,ioos:station:TCOON:518:1,2015-09-11T22:12:00Z,29.5150,-94.5133,1.444,1111122 
TCOON,ioos:station:TCOON:518:1,2015-09-11T23:36:00Z,29.5150,-94.5133,1.399,1111122 
TCOON,ioos:station:TCOON:518:1,2015-09-12T00:12:00Z,29.5150,-94.5133,1.42,1111122 
TCOON,ioos:station:TCOON:518:1,2015-09-12T01:24:00Z,29.5150,-94.5133,1.354,1111122 
TCOON,ioos:station:TCOON:518:1,2015-09-12T02:18:00Z,29.5150,-94.5133,1.316,1111122 
TCOON,ioos:station:TCOON:518:1,2015-09-12T03:18:00Z,29.5150,-94.5133,1.299,1111122 
TCOON,ioos:station:TCOON:518:1,2015-09-12T04:30:00Z,29.5150,-94.5133,1.271,1111122 
TCOON,ioos:station:TCOON:518:1,2015-09-12T05:18:00Z,29.5150,-94.5133,1.24,1111122 
TCOON,ioos:station:TCOON:518:1,2015-09-12T06:18:00Z,29.5150,-94.5133,1.241,1111122 
TCOON,ioos:station:TCOON:518:1,2015-09-12T07:42:00Z,29.5150,-94.5133,1.202,1111122 
TCOON,ioos:station:TCOON:518:1,2015-09-12T08:12:00Z,29.5150,-94.5133,1.186,1111122 
TCOON,ioos:station:TCOON:518:1,2015-09-12T09:12:00Z,29.5150,-94.5133,1.193,1111122 
TCOON,ioos:station:TCOON:518:1,2015-09-12T10:18:00Z,29.5150,-94.5133,1.337,1111122 
TCOON,ioos:station:TCOON:518:1,2015-09-12T11:12:00Z,29.5150,-94.5133,1.435,1111122 
TCOON,ioos:station:TCOON:518:1,2015-09-12T12:12:00Z,29.5150,-94.5133,1.382,1111122 
TCOON,ioos:station:TCOON:518:1,2015-09-12T13:12:00Z,29.5150,-94.5133,1.366,1111122 
TCOON,ioos:station:TCOON:518:1,2015-09-12T14:12:00Z,29.5150,-94.5133,1.349,1111122 
TCOON,ioos:station:TCOON:518:1,2015-09-12T15:12:00Z,29.5150,-94.5133,1.336,1111122 
TCOON,ioos:station:TCOON:518:1,2015-09-12T16:18:00Z,29.5150,-94.5133,1.307,1111122 
TCOON,ioos:station:TCOON:518:1,2015-09-12T17:12:00Z,29.5150,-94.5133,1.275,1111122 
TCOON,ioos:station:TCOON:518:1,2015-09-12T18:12:00Z,29.5150,-94.5133,1.288,1111122 
TCOON,ioos:station:TCOON:518:1,2015-09-12T19:18:00Z,29.5150,-94.5133,1.355,1111122 
TCOON,ioos:station:TCOON:518:1,2015-09-12T20:18:00Z,29.5150,-94.5133,1.316,1111122 
TCOON,ioos:station:TCOON:518:1,2015-09-12T21:18:00Z,29.5150,-94.5133,1.373,1111122 
TCOON,ioos:station:TCOON:518:1,2015-09-12T22:30:00Z,29.5150,-94.5133,1.437,1111122 
TCOON,ioos:station:TCOON:518:1,2015-09-12T23:18:00Z,29.5150,-94.5133,1.456,1111122 
TCOON,ioos:station:TCOON:518:1,2015-09-13T00:12:00Z,29.5150,-94.5133,1.424,1111122 
TCOON,ioos:station:TCOON:518:1,2015-09-13T01:12:00Z,29.5150,-94.5133,1.409,1111122 
TCOON,ioos:station:TCOON:518:1,2015-09-13T02:12:00Z,29.5150,-94.5133,1.397,1111122 
TCOON,ioos:station:TCOON:518:1,2015-09-13T03:12:00Z,29.5150,-94.5133,1.358,1111122 
TCOON,ioos:station:TCOON:518:1,2015-09-13T04:18:00Z,29.5150,-94.5133,1.308,1111122 
TCOON,ioos:station:TCOON:518:1,2015-09-13T05:30:00Z,29.5150,-94.5133,1.249,1111122 
TCOON,ioos:station:TCOON:518:1,2015-09-13T06:24:00Z,29.5150,-94.5133,1.207,1111122 
TCOON,ioos:station:TCOON:518:1,2015-09-13T08:12:00Z,29.5150,-94.5133,1.205,1111122 
TCOON,ioos:station:TCOON:518:1,2015-09-13T09:24:00Z,29.5150,-94.5133,1.215,1111122 
TCOON,ioos:station:TCOON:518:1,2015-09-13T10:24:00Z,29.5150,-94.5133,1.246,1111122 
TCOON,ioos:station:TCOON:518:1,2015-09-13T11:12:00Z,29.5150,-94.5133,1.287,1111122 
TCOON,ioos:station:TCOON:518:1,2015-09-13T12:12:00Z,29.5150,-94.5133,1.34,1111122 
TCOON,ioos:station:TCOON:518:1,2015-09-13T13:12:00Z,29.5150,-94.5133,1.368,1111122 
TCOON,ioos:station:TCOON:518:1,2015-09-13T14:12:00Z,29.5150,-94.5133,1.348,1111122 
TCOON,ioos:station:TCOON:518:1,2015-09-13T15:18:00Z,29.5150,-94.5133,1.336,1111122 